GW0655 Weather Reports


time (UTC)temp
C
wind
direction
speed
KPH
gust
KPH
rain 1hr
cm
rain 24hr
cm
rain mn
cm
humidity
%
barometer
mb
20260504185547 27 231 3.2 8.0 0.00 0.00 0.00 58 1014.1
20260504185044 27 173 8.0 11.3 0.00 0.00 0.00 58 1013.8
20260504184539 26 221 3.2 3.2 0.00 0.00 0.00 59 1014.1
20260504184035 27 85 8.0 11.3 0.00 0.00 0.00 58 1014.1
20260504183532 27 217 8.0 11.3 0.00 0.00 0.00 57 1014.5
20260504183030 26 201 6.4 9.7 0.00 0.00 0.00 59 1014.5
20260504182527 26 166 6.4 8.0 0.00 0.00 0.00 59 1014.5
20260504182024 26 224 8.0 11.3 0.00 0.00 0.00 58 1014.8
20260504181521 26 138 14.5 17.7 0.00 0.00 0.00 61 1014.8
20260504181020 26 215 14.5 20.9 0.00 0.00 0.00 60 1014.8
20260504180518 26 197 4.8 8.0 0.00 0.00 0.00 60 1014.5
20260504180017 26 192 4.8 8.0 0.00 0.00 0.00 61 1014.8
20260504175513 26 246 16.1 17.7 0.00 0.00 0.00 61 1014.8
20260504175011 26 183 4.8 8.0 0.00 0.00 0.00 62 1014.8
20260504174508 25 191 11.3 16.1 0.00 0.00 0.00 62 1015.2
20260504174005 25 226 14.5 16.1 0.00 0.00 0.00 61 1015.5
20260504173502 25 221 6.4 16.1 0.00 0.00 0.00 64 1015.5
20260504172959 25 194 12.9 14.5 0.00 0.00 0.00 63 1015.5
20260504172455 25 157 4.8 9.7 0.00 0.00 0.00 65 1015.8
20260504171951 25 208 6.4 8.0 0.00 0.00 0.00 65 1015.5
20260504171449 24 208 8.0 9.7 0.00 0.00 0.00 66 1015.8
20260504170945 23 259 6.4 9.7 0.00 0.00 0.00 67 1015.8
20260504170442 24 208 9.7 12.9 0.00 0.00 0.00 67 1015.8
20260504160402 23 234 8.0 11.3 0.00 0.00 0.00 67 1016.5
20260504150826 22 192 8.0 9.7 0.00 0.00 0.00 68 1016.5
20260504150322 22 183 8.0 9.7 0.00 0.00 0.00 69 1016.9
20260504141252 20 116 4.8 8.0 0.00 0.00 0.00 72 1016.9
20260504140749 20 204 6.4 8.0 0.00 0.00 0.00 73 1016.9
20260504140244 20 191 8.0 8.0 0.00 0.00 0.00 73 1017.2
20260504130713 17 217 3.2 3.2 0.00 0.00 0.00 81 1016.9
20260504130209 16 232 0.0 1.6 0.00 0.00 0.00 82 1016.9
20260504120133 15 234 1.6 3.2 0.00 0.00 0.00 86 1016.2
20260504110600 15 174 1.6 3.2 0.00 0.00 0.00 87 1016.9
20260504100522 15 229 1.6 1.6 0.00 0.00 0.00 83 1016.5
20260504081916 16 229 0.0 1.6 0.00 0.00 0.00 80 1017.2
20260504081413 16 248 1.6 1.6 0.00 0.00 0.00 79 1017.5
20260504080908 16 246 0.0 0.0 0.00 0.00 0.00 79 1017.2
20260504080405 16 233 0.0 0.0 0.00 0.00 0.00 79 1017.2
20260504070333 17 210 1.6 1.6 0.00 0.00 0.00 73 1018.2
20260504050721 18 236 3.2 4.8 0.00 0.00 0.00 67 1018.9
20260504050218 18 121 4.8 4.8 0.00 0.00 0.00 66 1019.3
20260504045715 18 146 6.4 9.7 0.00 0.00 0.00 65 1019.3
20260504045215 18 242 4.8 8.0 0.00 0.00 0.00 66 1019.3
20260504044714 18 160 4.8 4.8 0.00 0.00 0.00 66 1019.3
20260504044210 18 197 4.8 9.7 0.00 0.00 0.00 66 1019.3
20260504043708 18 195 3.2 3.2 0.00 0.00 0.00 65 1019.3
20260504043204 18 127 4.8 4.8 0.00 0.00 0.00 65 1019.3
20260504042702 18 254 1.6 3.2 0.00 0.00 0.00 65 1019.3
20260504042158 19 216 1.6 3.2 0.00 0.00 0.00 64 1019.7
20260504041654 19 193 0.0 1.6 0.00 0.00 0.00 64 1019.7
20260504041150 19 135 3.2 4.8 0.00 0.00 0.00 63 1019.3
20260504040647 19 185 1.6 1.6 0.00 0.00 0.00 63 1019.7
20260504040144 19 203 3.2 3.2 0.00 0.00 0.00 62 1019.3
20260504035641 19 182 4.8 4.8 0.00 0.00 0.00 62 1019.3
20260504035138 20 148 4.8 4.8 0.00 0.00 0.00 61 1019.3
20260504034635 20 97 3.2 4.8 0.00 0.00 0.00 61 1019.3
20260504034132 20 170 1.6 3.2 0.00 0.00 0.00 60 1019.3
20260504033630 19 182 1.6 4.8 0.00 0.00 0.00 60 1018.9
20260504033127 18 177 1.6 3.2 0.00 0.00 0.00 61 1019.3
20260504032624 18 137 1.6 1.6 0.00 0.00 0.00 61 1019.3
20260504032120 18 215 0.0 0.0 0.00 0.00 0.00 61 1019.3
20260504031618 18 238 0.0 1.6 0.00 0.00 0.00 62 1019.3
20260504031114 18 249 0.0 0.0 0.00 0.00 0.00 61 1019.3
20260504030611 18 211 0.0 0.0 0.00 0.00 0.00 61 1019.3
20260504030108 18 229 0.0 0.0 0.00 0.00 0.00 61 1018.9
20260504025604 19 239 0.0 0.0 0.00 0.00 0.00 61 1018.9
20260504025101 19 243 0.0 0.0 0.00 0.00 0.00 60 1018.9
20260504024559 19 243 0.0 0.0 0.00 0.00 0.00 60 1018.9
20260504024055 19 222 0.0 1.6 0.00 0.00 0.00 60 1018.9
20260504023552 19 233 0.0 1.6 0.00 0.00 0.00 59 1018.9
20260504023048 20 247 0.0 1.6 0.00 0.00 0.00 60 1018.9
20260504022544 19 244 0.0 1.6 0.00 0.00 0.00 59 1018.9
20260504022040 20 246 0.0 0.0 0.00 0.00 0.00 59 1019.3
20260504021538 20 237 0.0 0.0 0.00 0.00 0.00 58 1018.9
20260504021034 20 237 0.0 0.0 0.00 0.00 0.00 56 1018.9
20260504020531 20 236 0.0 0.0 0.00 0.00 0.00 56 1018.9
20260504020028 20 241 0.0 0.0 0.00 0.00 0.00 55 1018.9
20260504015524 20 256 0.0 0.0 0.00 0.00 0.00 55 1018.5
20260504015020 21 248 0.0 0.0 0.00 0.00 0.00 54 1018.5
20260504014517 21 235 0.0 0.0 0.00 0.00 0.00 54 1018.2
20260504014014 21 234 0.0 0.0 0.00 0.00 0.00 53 1018.5
20260504013512 21 228 0.0 0.0 0.00 0.00 0.00 52 1018.2
20260504013009 21 215 1.6 1.6 0.00 0.00 0.00 51 1018.2
20260504012506 21 239 0.0 0.0 0.00 0.00 0.00 51 1018.2
20260504012004 22 236 0.0 0.0 0.00 0.00 0.00 50 1018.2
20260504011500 22 224 0.0 0.0 0.00 0.00 0.00 50 1018.5
20260504010955 22 227 0.0 0.0 0.00 0.00 0.00 50 1018.2
20260504010452 23 210 0.0 1.6 0.00 0.00 0.00 47 1018.2
20260504005948 23 185 1.6 3.2 0.00 0.00 0.00 46 1018.2
20260504005445 23 209 3.2 3.2 0.00 0.00 0.00 45 1018.2
20260504004943 23 203 1.6 3.2 0.00 0.00 0.00 45 1018.2
20260504004440 23 197 1.6 3.2 0.00 0.00 0.00 45 1017.9
20260504003937 23 249 1.6 1.6 0.00 0.00 0.00 44 1018.2
20260504003433 23 248 1.6 3.2 0.00 0.00 0.00 43 1018.2
20260504002930 24 170 4.8 4.8 0.00 0.00 0.00 42 1018.5
20260504002427 24 205 4.8 4.8 0.00 0.00 0.00 43 1018.5
20260504001924 24 191 4.8 4.8 0.00 0.00 0.00 42 1018.5
20260504001422 24 176 6.4 8.0 0.00 0.00 0.00 41 1018.5
20260504000918 24 195 3.2 3.2 0.00 0.00 0.00 41 1018.9
20260504000416 25 195 4.8 8.0 0.00 0.00 0.00 41 1018.5
20260503235913 25 198 3.2 4.8 0.00 0.00 0.00 40 1018.9
20260503235410 25 287 3.2 3.2 0.00 0.00 0.00 39 1018.9
20260503234908 25 213 6.4 8.0 0.00 0.00 0.00 38 1018.9
20260503234405 25 186 3.2 3.2 0.00 0.00 0.00 39 1019.3
20260503233903 25 151 0.0 1.6 0.00 0.00 0.00 40 1018.9
20260503233359 25 204 3.2 3.2 0.00 0.00 0.00 41 1018.9
20260503232855 25 231 1.6 3.2 0.00 0.00 0.00 41 1018.9
20260503232353 25 228 1.6 1.6 0.00 0.00 0.00 41 1018.9
20260503231850 25 156 3.2 3.2 0.00 0.00 0.00 40 1018.9
20260503231347 25 236 4.8 8.0 0.00 0.00 0.00 40 1018.9
20260503230843 25 240 3.2 3.2 0.00 0.00 0.00 41 1018.9
20260503230340 25 208 3.2 4.8 0.00 0.00 0.00 40 1018.9
20260503225838 25 201 9.7 11.3 0.00 0.00 0.00 39 1018.9
20260503225334 26 224 3.2 3.2 0.00 0.00 0.00 40 1018.9
20260503224830 26 177 4.8 4.8 0.00 0.00 0.00 39 1018.9
20260503224328 26 254 4.8 4.8 0.00 0.00 0.00 37 1018.9
20260503223825 26 196 1.6 3.2 0.00 0.00 0.00 39 1018.9
20260503223323 26 249 1.6 1.6 0.00 0.00 0.00 37 1019.3
20260503222818 26 134 4.8 8.0 0.00 0.00 0.00 38 1019.3
20260503222317 27 230 1.6 1.6 0.00 0.00 0.00 39 1019.3
20260503221815 27 135 1.6 3.2 0.00 0.00 0.00 37 1019.7
20260503221313 26 170 6.4 9.7 0.00 0.00 0.00 37 1019.7
20260503220809 27 210 11.3 14.5 0.00 0.00 0.00 37 1020.0
20260503220306 26 227 1.6 3.2 0.00 0.00 0.00 36 1019.7
20260503215802 26 254 3.2 3.2 0.00 0.00 0.00 36 1019.7
20260503215259 26 189 3.2 4.8 0.00 0.00 0.00 37 1019.7
20260503214757 26 215 4.8 4.8 0.00 0.00 0.00 37 1020.0
20260503214254 27 234 3.2 3.2 0.00 0.00 0.00 37 1020.0
20260503213752 26 239 1.6 3.2 0.00 0.00 0.00 37 1020.0
20260503213249 26 270 6.4 8.0 0.00 0.00 0.00 36 1020.3
20260503212746 26 141 6.4 9.7 0.00 0.00 0.00 37 1020.3
20260503212244 26 200 4.8 4.8 0.00 0.00 0.00 36 1020.3
20260503211741 26 115 4.8 9.7 0.00 0.00 0.00 35 1020.7
20260503211237 27 141 4.8 8.0 0.00 0.00 0.00 34 1020.7
20260503210732 27 190 6.4 9.7 0.00 0.00 0.00 34 1020.7
20260503210230 26 150 3.2 3.2 0.00 0.00 0.00 34 1021.0
20260503205726 26 196 6.4 8.0 0.00 0.00 0.00 36 1021.0
20260503205222 26 176 6.4 9.7 0.00 0.00 0.00 34 1020.7
20260503204718 27 216 4.8 8.0 0.00 0.00 0.00 34 1020.7
20260503204216 26 158 9.7 11.3 0.00 0.00 0.00 35 1021.0
20260503203713 26 193 4.8 8.0 0.00 0.00 0.00 36 1021.4
20260503203211 27 187 4.8 8.0 0.00 0.00 0.00 34 1021.4
20260503202708 26 201 3.2 4.8 0.00 0.00 0.00 36 1021.4
20260503202206 26 141 8.0 11.3 0.00 0.00 0.00 35 1021.4
20260503201703 26 185 4.8 9.7 0.00 0.00 0.00 34 1021.7
20260503201201 27 84 6.4 9.7 0.00 0.00 0.00 34 1021.4
20260503200657 26 141 11.3 16.1 0.00 0.00 0.00 35 1021.7
20260503200153 26 127 4.8 8.0 0.00 0.00 0.00 36 1021.7
20260503195650 27 211 6.4 11.3 0.00 0.00 0.00 35 1021.7
20260503195147 26 171 1.6 3.2 0.00 0.00 0.00 37 1022.0
20260503194644 26 210 4.8 11.3 0.00 0.00 0.00 35 1022.0
20260503194139 26 121 6.4 9.7 0.00 0.00 0.00 37 1021.7
20260503193637 26 209 8.0 11.3 0.00 0.00 0.00 36 1022.0
20260503193132 26 195 3.2 4.8 0.00 0.00 0.00 36 1022.4
20260503192628 26 221 6.4 9.7 0.00 0.00 0.00 36 1022.0
20260503192124 26 195 4.8 8.0 0.00 0.00 0.00 38 1022.0
20260503191621 26 254 9.7 12.9 0.00 0.00 0.00 37 1022.0
20260503191118 26 116 8.0 11.3 0.00 0.00 0.00 35 1022.4
20260503190615 27 229 4.8 8.0 0.00 0.00 0.00 35 1022.4
20260503190112 26 289 1.6 3.2 0.00 0.00 0.00 39 1022.7